Time,TemperatureF,DewpointF,PressureIn,WindDirection,WindDirectionDegrees,WindSpeedMPH,WindSpeedGustMPH,Humidity,HourlyPrecipIn,Conditions,Clouds,dailyrainin,SoftwareType,DateUTC
2013-12-04 00:05:00,45.6,45.0,29.90,North,355,0.0,0.0,99,0.00,,,0.00,weatherlink.com 1.10,2013-12-04 05:05:00,
2013-12-04 00:20:00,45.0,45.0,29.90,North,355,0.0,0.0,99,0.00,,,0.00,weatherlink.com 1.10,2013-12-04 05:20:00,
2013-12-04 00:35:00,45.0,45.0,29.90,North,355,0.0,0.0,99,0.00,,,0.00,weatherlink.com 1.10,2013-12-04 05:35:00,
2013-12-04 00:50:00,45.2,45.0,29.91,North,355,0.0,0.0,99,0.00,,,0.00,weatherlink.com 1.10,2013-12-04 05:50:00,
2013-12-04 01:05:00,45.4,45.0,29.91,North,355,0.0,0.0,99,0.00,,,0.00,weatherlink.com 1.10,2013-12-04 06:05:00,
2013-12-04 01:20:00,45.6,45.0,29.91,North,355,0.0,0.0,99,0.00,,,0.00,weatherlink.com 1.10,2013-12-04 06:20:00,
2013-12-04 01:35:00,45.6,45.0,29.92,North,355,0.0,0.0,99,0.00,,,0.00,weatherlink.com 1.10,2013-12-04 06:35:00,
2013-12-04 01:50:00,45.6,45.0,29.92,North,355,0.0,0.0,99,0.00,,,0.00,weatherlink.com 1.10,2013-12-04 06:50:00,
2013-12-04 02:05:00,45.7,46.0,29.92,North,355,0.0,2.0,99,0.00,,,0.00,weatherlink.com 1.10,2013-12-04 07:05:00,
2013-12-04 02:20:00,45.8,46.0,29.92,North,355,0.0,1.0,99,0.00,,,0.00,weatherlink.com 1.10,2013-12-04 07:20:00,
2013-12-04 02:35:00,46.0,46.0,29.92,SE,142,0.0,0.0,100,0.00,,,0.00,weatherlink.com 1.10,2013-12-04 07:35:00,
2013-12-04 02:50:00,45.9,46.0,29.91,SE,142,0.0,0.0,99,0.00,,,0.00,weatherlink.com 1.10,2013-12-04 07:50:00,
2013-12-04 03:05:00,45.9,46.0,29.91,SE,142,0.0,0.0,99,0.00,,,0.00,weatherlink.com 1.10,2013-12-04 08:05:00,
2013-12-04 03:20:00,45.9,46.0,29.91,SE,141,0.0,0.0,99,0.00,,,0.00,weatherlink.com 1.10,2013-12-04 08:20:00,
2013-12-04 03:35:00,45.7,46.0,29.91,SE,141,0.0,0.0,99,0.00,,,0.00,weatherlink.com 1.10,2013-12-04 08:35:00,
2013-12-04 03:50:00,45.6,45.0,29.90,SE,142,0.0,0.0,99,0.00,,,0.00,weatherlink.com 1.10,2013-12-04 08:50:00,
2013-12-04 04:05:00,45.5,45.0,29.90,SE,142,0.0,0.0,99,0.00,,,0.00,weatherlink.com 1.10,2013-12-04 09:05:00,
2013-12-04 04:20:00,45.4,45.0,29.90,SSE,158,0.0,1.0,99,0.00,,,0.00,weatherlink.com 1.10,2013-12-04 09:20:00,
2013-12-04 04:35:00,45.2,45.0,29.91,SSE,156,0.0,2.0,99,0.00,,,0.00,weatherlink.com 1.10,2013-12-04 09:35:00,
2013-12-04 04:50:00,44.8,45.0,29.92,SSE,155,0.0,1.0,99,0.00,,,0.00,weatherlink.com 1.10,2013-12-04 09:50:00,
2013-12-04 05:05:00,44.7,45.0,29.93,SSE,156,0.0,1.0,99,0.00,,,0.00,weatherlink.com 1.10,2013-12-04 10:05:00,
2013-12-04 05:21:00,44.5,44.0,29.93,SSE,155,0.0,0.0,99,0.00,,,0.00,weatherlink.com 1.10,2013-12-04 10:21:00,
2013-12-04 05:36:00,44.6,44.0,29.94,SSE,155,0.0,1.0,99,0.00,,,0.00,weatherlink.com 1.10,2013-12-04 10:36:00,
2013-12-04 05:51:00,44.5,44.0,29.95,SSE,156,0.0,0.0,99,0.00,,,0.00,weatherlink.com 1.10,2013-12-04 10:51:00,
2013-12-04 06:06:00,44.5,44.0,29.95,SSE,155,0.0,0.0,99,0.00,,,0.00,weatherlink.com 1.10,2013-12-04 11:06:00,
2013-12-04 06:21:00,44.5,44.0,29.96,SSE,156,0.0,0.0,99,0.00,,,0.00,weatherlink.com 1.10,2013-12-04 11:21:00,
2013-12-04 06:36:00,44.6,44.0,29.96,SSE,155,0.0,0.0,99,0.00,,,0.00,weatherlink.com 1.10,2013-12-04 11:36:00,
2013-12-04 06:51:00,44.5,44.0,29.96,SSE,156,0.0,0.0,99,0.00,,,0.00,weatherlink.com 1.10,2013-12-04 11:51:00,
2013-12-04 07:06:00,44.2,44.0,29.95,SSE,156,0.0,1.0,99,0.00,,,0.00,weatherlink.com 1.10,2013-12-04 12:06:00,
2013-12-04 07:21:00,43.8,44.0,29.95,SSE,155,0.0,0.0,99,0.00,,,0.00,weatherlink.com 1.10,2013-12-04 12:21:00,
2013-12-04 07:36:00,43.6,43.0,29.96,SSE,155,0.0,0.0,99,0.00,,,0.00,weatherlink.com 1.10,2013-12-04 12:36:00,
2013-12-04 07:51:00,43.2,43.0,29.97,SSE,156,0.0,0.0,99,0.00,,,0.00,weatherlink.com 1.10,2013-12-04 12:51:00,
2013-12-04 08:06:00,43.5,44.0,29.97,SSE,155,0.0,0.0,100,0.00,,,0.00,weatherlink.com 1.10,2013-12-04 13:06:00,
2013-12-04 08:21:00,44.1,44.0,29.97,SSE,156,0.0,1.0,100,0.00,,,0.00,weatherlink.com 1.10,2013-12-04 13:21:00,
2013-12-04 08:36:00,45.0,45.0,29.98,SSE,155,0.0,0.0,100,0.00,,,0.00,weatherlink.com 1.10,2013-12-04 13:36:00,
2013-12-04 08:51:00,45.9,46.0,29.98,SSE,155,0.0,0.0,100,0.00,,,0.00,weatherlink.com 1.10,2013-12-04 13:51:00,
2013-12-04 09:06:00,46.8,47.0,29.99,SSE,156,0.0,0.0,100,0.00,,,0.00,weatherlink.com 1.10,2013-12-04 14:06:00,
2013-12-04 09:21:00,47.6,48.0,29.99,SSE,155,0.0,0.0,100,0.00,,,0.00,weatherlink.com 1.10,2013-12-04 14:21:00,
2013-12-04 09:36:00,48.6,49.0,29.99,SSE,156,0.0,0.0,100,0.00,,,0.00,weatherlink.com 1.10,2013-12-04 14:36:00,
2013-12-04 09:51:00,49.6,50.0,29.99,SSE,156,0.0,0.0,100,0.00,,,0.00,weatherlink.com 1.10,2013-12-04 14:51:00,
2013-12-04 10:06:00,51.5,52.0,29.98,SSE,155,0.0,0.0,100,0.00,,,0.00,weatherlink.com 1.10,2013-12-04 15:06:00,
2013-12-04 10:21:00,53.9,53.0,29.98,ENE,57,1.0,2.0,97,0.00,,,0.00,weatherlink.com 1.10,2013-12-04 15:21:00,
2013-12-04 10:36:00,57.6,54.0,29.98,SSW,202,1.0,5.0,86,0.00,,,0.00,weatherlink.com 1.10,2013-12-04 15:36:00,
2013-12-04 10:51:00,59.6,54.0,29.97,SSW,192,0.0,5.0,82,0.00,,,0.00,weatherlink.com 1.10,2013-12-04 15:51:00,
2013-12-04 11:06:00,60.9,54.0,29.96,South,188,0.0,4.0,79,0.00,,,0.00,weatherlink.com 1.10,2013-12-04 16:06:00,
2013-12-04 11:21:00,62.1,56.0,29.96,NNE,27,1.0,3.0,79,0.00,,,0.00,weatherlink.com 1.10,2013-12-04 16:21:00,
2013-12-04 11:36:00,64.1,55.0,29.95,North,350,0.0,3.0,73,0.00,,,0.00,weatherlink.com 1.10,2013-12-04 16:36:00,
2013-12-04 11:52:00,66.1,56.0,29.94,North,350,0.0,3.0,70,0.00,,,0.00,weatherlink.com 1.10,2013-12-04 16:52:00,
2013-12-04 12:07:00,67.0,56.0,29.93,North,350,0.0,2.0,69,0.00,,,0.00,weatherlink.com 1.10,2013-12-04 17:07:00,
2013-12-04 12:22:00,67.7,56.0,29.92,North,350,1.0,1.0,66,0.00,,,0.00,weatherlink.com 1.10,2013-12-04 17:22:00,
2013-12-04 12:37:00,68.8,56.0,29.91,NNW,348,0.0,2.0,65,0.00,,,0.00,weatherlink.com 1.10,2013-12-04 17:37:00,
2013-12-04 13:07:00,71.1,54.0,29.89,SSW,199,3.0,6.0,55,0.00,,,0.00,weatherlink.com 1.10,2013-12-04 18:07:00,
2013-12-04 13:22:00,71.6,54.0,29.89,WSW,238,4.0,7.0,55,0.00,,,0.00,weatherlink.com 1.10,2013-12-04 18:22:00,
2013-12-04 13:37:00,72.4,55.0,29.88,NW,305,1.0,4.0,55,0.00,,,0.00,weatherlink.com 1.10,2013-12-04 18:37:00,
2013-12-04 13:52:00,72.9,53.0,29.87,WNW,284,0.0,6.0,50,0.00,,,0.00,weatherlink.com 1.10,2013-12-04 18:52:00,
2013-12-04 14:07:00,72.8,52.0,29.87,South,171,0.0,4.0,48,0.00,,,0.00,weatherlink.com 1.10,2013-12-04 19:07:00,
2013-12-04 14:22:00,73.5,54.0,29.87,WSW,240,2.0,2.0,51,0.00,,,0.00,weatherlink.com 1.10,2013-12-04 19:22:00,
2013-12-04 14:37:00,72.8,54.0,29.87,West,279,0.0,6.0,51,0.00,,,0.00,weatherlink.com 1.10,2013-12-04 19:37:00,
2013-12-04 14:52:00,72.3,54.0,29.87,West,267,0.0,1.0,52,0.00,,,0.00,weatherlink.com 1.10,2013-12-04 19:52:00,
2013-12-04 15:07:00,71.1,53.0,29.87,NNW,342,4.0,6.0,54,0.00,,,0.00,weatherlink.com 1.10,2013-12-04 20:07:00,
2013-12-04 15:22:00,70.4,53.0,29.88,NNW,338,1.0,2.0,54,0.00,,,0.00,weatherlink.com 1.10,2013-12-04 20:22:00,
2013-12-04 15:37:00,69.5,53.0,29.87,WSW,254,0.0,7.0,56,0.00,,,0.00,weatherlink.com 1.10,2013-12-04 20:37:00,
2013-12-04 15:52:00,68.3,55.0,29.88,NW,322,0.0,1.0,63,0.00,,,0.00,weatherlink.com 1.10,2013-12-04 20:52:00,
2013-12-04 16:07:00,67.0,55.0,29.89,NW,322,0.0,0.0,65,0.00,,,0.00,weatherlink.com 1.10,2013-12-04 21:07:00,
2013-12-04 16:22:00,65.2,56.0,29.89,NW,322,0.0,2.0,71,0.00,,,0.00,weatherlink.com 1.10,2013-12-04 21:22:00,
2013-12-04 16:37:00,63.3,55.0,29.89,NW,323,2.0,2.0,74,0.00,,,0.00,weatherlink.com 1.10,2013-12-04 21:37:00,
2013-12-04 16:52:00,61.8,55.0,29.89,NW,323,0.0,3.0,78,0.00,,,0.00,weatherlink.com 1.10,2013-12-04 21:52:00,
2013-12-04 17:22:00,60.0,54.0,29.89,NW,325,0.0,2.0,80,0.00,,,0.00,weatherlink.com 1.10,2013-12-04 22:22:00,
2013-12-04 17:37:00,58.7,53.0,29.90,NNW,342,1.0,3.0,82,0.00,,,0.00,weatherlink.com 1.10,2013-12-04 22:37:00,
2013-12-04 17:52:00,57.5,53.0,29.90,NW,315,0.0,2.0,84,0.00,,,0.00,weatherlink.com 1.10,2013-12-04 22:52:00,
2013-12-04 18:07:00,56.3,52.0,29.91,NNW,342,1.0,1.0,86,0.00,,,0.00,weatherlink.com 1.10,2013-12-04 23:07:00,
2013-12-04 18:22:00,55.3,52.0,29.91,NNW,342,0.0,1.0,87,0.00,,,0.00,weatherlink.com 1.10,2013-12-04 23:22:00,
2013-12-04 18:37:00,54.7,51.0,29.91,NNW,331,0.0,1.0,88,0.00,,,0.00,weatherlink.com 1.10,2013-12-04 23:37:00,
2013-12-04 18:52:00,54.1,51.0,29.92,North,355,0.0,4.0,89,0.00,,,0.00,weatherlink.com 1.10,2013-12-04 23:52:00,
2013-12-04 19:07:00,53.2,50.0,29.92,North,355,0.0,1.0,90,0.00,,,0.00,weatherlink.com 1.10,2013-12-05 00:07:00,
2013-12-04 19:22:00,52.5,50.0,29.93,North,355,0.0,0.0,91,0.00,,,0.00,weatherlink.com 1.10,2013-12-05 00:22:00,
2013-12-04 19:37:00,51.9,50.0,29.94,North,355,0.0,0.0,92,0.00,,,0.00,weatherlink.com 1.10,2013-12-05 00:37:00,
2013-12-04 19:52:00,51.3,49.0,29.94,North,355,0.0,0.0,93,0.00,,,0.00,weatherlink.com 1.10,2013-12-05 00:52:00,
2013-12-04 20:07:00,50.9,49.0,29.94,North,355,0.0,0.0,94,0.00,,,0.00,weatherlink.com 1.10,2013-12-05 01:07:00,
2013-12-04 20:22:00,50.5,49.0,29.95,North,355,0.0,0.0,94,0.00,,,0.00,weatherlink.com 1.10,2013-12-05 01:22:00,
2013-12-04 20:37:00,50.1,49.0,29.95,North,355,0.0,0.0,95,0.00,,,0.00,weatherlink.com 1.10,2013-12-05 01:37:00,
2013-12-04 20:52:00,49.9,49.0,29.96,North,355,0.0,0.0,95,0.00,,,0.00,weatherlink.com 1.10,2013-12-05 01:52:00,
2013-12-04 21:07:00,49.5,48.0,29.96,North,355,0.0,0.0,96,0.00,,,0.00,weatherlink.com 1.10,2013-12-05 02:07:00,
2013-12-04 21:22:00,49.4,48.0,29.96,North,355,0.0,0.0,96,0.00,,,0.00,weatherlink.com 1.10,2013-12-05 02:22:00,
2013-12-04 21:37:00,48.8,48.0,29.96,North,355,0.0,0.0,96,0.00,,,0.00,weatherlink.com 1.10,2013-12-05 02:37:00,
2013-12-04 21:52:00,48.5,48.0,29.96,North,355,0.0,0.0,97,0.00,,,0.00,weatherlink.com 1.10,2013-12-05 02:52:00,
2013-12-04 22:07:00,48.4,48.0,29.96,North,355,0.0,0.0,97,0.00,,,0.00,weatherlink.com 1.10,2013-12-05 03:07:00,
2013-12-04 22:22:00,48.3,48.0,29.97,North,355,0.0,0.0,97,0.00,,,0.00,weatherlink.com 1.10,2013-12-05 03:22:00,
2013-12-04 22:37:00,48.5,48.0,29.99,North,355,0.0,0.0,98,0.00,,,0.00,weatherlink.com 1.10,2013-12-05 03:37:00,
2013-12-04 22:52:00,48.1,48.0,29.99,North,355,0.0,0.0,98,0.00,,,0.00,weatherlink.com 1.10,2013-12-05 03:52:00,
2013-12-04 23:07:00,48.2,48.0,29.99,North,355,0.0,0.0,98,0.00,,,0.00,weatherlink.com 1.10,2013-12-05 04:07:00,
2013-12-04 23:22:00,48.2,48.0,29.98,North,355,0.0,0.0,98,0.00,,,0.00,weatherlink.com 1.10,2013-12-05 04:22:00,
2013-12-04 23:37:00,48.1,48.0,29.99,North,355,0.0,1.0,98,0.00,,,0.00,weatherlink.com 1.10,2013-12-05 04:37:00,
2013-12-04 23:52:00,48.1,48.0,29.99,NNW,347,0.0,3.0,98,0.00,,,0.00,weatherlink.com 1.10,2013-12-05 04:52:00,